Regional Weather Roundup
Issued by NWS

Home | Current Version | Previous Version | Text Only | Print | Product List | Glossary On
Versions: 1 2 3 4 5 6 7 8 9 10 11 12 13 14 15 16 17 18 19 20 21 22 23 24 25 26 27 28 29 30 31 32 33 34 35 36 37 38 39 40 41 42 43 44 45 46 47 48 49 50
744
ASUS44 KLIX 211005
RWRLA
LOUISIANA WEATHER ROUNDUP
NATIONAL WEATHER SERVICE NEW ORLEANS LA
500 AM CDT THU AUG 21 2014

NOTE: "FAIR" INDICATES FEW OR NO CLOUDS BELOW 12,000 FEET WITH NO
      SIGNIFICANT WEATHER AND/OR OBSTRUCTIONS TO VISIBILITY.
      SKY/WX - SKY CONDITION AND SIGNIFICANT WEATHER.
      TMP - AIR TEMPERATURE.    DP   - DEWPOINT TEMPERATURE.
      RH  - RELATIVE HUMIDITY.  PRES - PRESSURE.
      HX  - HEAT INDEX.         WCI  - WIND CHILL INDEX.

*  THESE STATIONS ARE NOT NWS OR FAA STATIONS AND ARE NOT UNDER
   NWS QUALITY CONTROL.

LAZ040-048-061>063-065-066-069-211100-
SOUTHEAST LOUISIANA

CITY           SKY/WX    TMP DP  RH WIND       PRES   REMARKS
N.O. AUDUBON   NOT AVBL
N.O. INTL ARPT MOCLDY    77  74  90 W3        30.10R
N.O. LAKEFRONT PTCLDY    79  75  87 SE3       30.10R
N.O. DOWNTOWN* FAIR      82  73  74 S3        30.11R
SLIDELL        CLEAR     75  72  90 CALM      30.09R
BATON ROUGE    MOCLDY    74  72  93 NE3       30.09R
BOOTHVILLE     PTCLDY    83  77  82 SW5       30.09F
BELLE CHASSE   PTCLDY    74  71  91 CALM      30.09R
BOGALUSA*        N/A     73  70  89 CALM      30.12R
GALLIANO*      NOT AVBL
NEW ROADS*     FAIR      74  73  96 CALM      30.09R
GONZALES*      FAIR      73  73  99 CALM      30.08S
HAMMOND*       PTCLDY    73  70  88 CALM      30.11R
HOUMA*         PTCLDY    74  71  90 CALM      30.09R
PORT FOURCHON* SUNNY     84  75  74 CALM      30.10S

$$

LAZ041-044-053-054-211100-
SOUTHWEST LOUISIANA

CITY           SKY/WX    TMP DP  RH WIND       PRES   REMARKS
LAKE CHARLES   CLOUDY    79  77  94 E5        30.05S THUNDER
LAFAYETTE      CLOUDY    76  74  93 CALM      30.08S
PATTERSON      CLEAR    N/A N/A N/A MISG        N/A
SALT POINT       N/A     87  78  74 CALM      30.07R HX 100
NEW IBERIA     PTCLDY    76  73  91 SE3       30.08S
CHENAULT AIRPK NOT AVBL

$$

LAZ027-028-211100-
CENTRAL LOUISIANA

CITY           SKY/WX    TMP DP  RH WIND       PRES   REMARKS
FORT POLK      CLOUDY    75  74  96 CALM      30.06S
ALEXANDRIA INT MOCLDY    76  73  91 SE3       30.05S
ALEXANDRIA     MOCLDY    74  72  93 CALM      30.07S

$$

LAZ001-002-211100-
NORTHWEST LOUISIANA

CITY           SKY/WX    TMP DP  RH WIND       PRES   REMARKS
SHREVEPORT     MOCLDY    76  73  91 SE5       30.04S
BARKSDALE AFB  MOCLDY    76  73  92 S7        30.05S
DTN SHREVEPORT MOCLDY    76  72  87 S6        30.04S

$$

LAZ014-016-211100-
NORTHEAST LOUISIANA

CITY           SKY/WX    TMP DP  RH WIND       PRES   REMARKS
MONROE         PTCLDY    73  71  93 CALM      30.08R
TALLULAH       PTCLDY    71  69  93 CALM      30.09R

$$




USA.gov is the U.S. government's official web portal to all federal, state and local government web resources and services.